Location: Flotzheim
(48.8375°N, 10.8136°E)
Time: 04:49:20
(UTC+00:00)

CZ-4B R/B - Pass Details

Date: 23 January 2021
Orbit: 387 x 458 km, 97.6° (Epoch: 26 February)

Event Time Altitude Azimuth Distance (km) Brightness Sun altitude
Exits shadow 17:29:42 - 12° (NNE) 1,912 4.3 -14.5°
Reaches altitude 10° 17:30:28 10° 12° (NNE) 1,581 3.9 -14.7°
Maximum altitude 17:33:51 82° 285° (WNW) 450 1.4 -15.2°
Drops below altitude 10° 17:37:08 10° 198° (SSW) 1,527 4.5 -15.7°
Sets 17:39:06 0° 197° (SSW) 2,375 5.5 -16.1°
